TimeCST,TemperatureF,Dew PointF,Humidity,Sea Level PressureIn,VisibilityMPH,Wind Direction,Wind SpeedMPH,Gust SpeedMPH,PrecipitationIn,Events,Conditions,WindDirDegrees,DateUTC
12:15 AM,38.3,35.2,89,30.09,5.0,SE,5.8,-,N/A,,Clear,140,2012-11-09 06:15:00
12:35 AM,37.8,35.1,90,30.08,5.0,SE,6.9,-,N/A,,Clear,130,2012-11-09 06:35:00
12:55 AM,38.1,35.4,90,30.08,5.0,ESE,6.9,-,N/A,,Clear,120,2012-11-09 06:55:00
1:15 AM,38.1,35.4,90,30.08,5.0,ESE,6.9,-,N/A,,Clear,120,2012-11-09 07:15:00
1:35 AM,37.8,35.4,91,30.07,5.0,ESE,8.1,-,N/A,,Clear,110,2012-11-09 07:35:00
1:55 AM,37.4,35.1,91,30.07,4.0,ESE,5.8,-,N/A,,Clear,110,2012-11-09 07:55:00
2:15 AM,36.9,34.7,92,30.07,4.0,ESE,6.9,-,N/A,,Clear,110,2012-11-09 08:15:00
2:35 AM,37.4,35.2,92,30.07,4.0,ESE,6.9,-,N/A,,Clear,120,2012-11-09 08:35:00
2:55 AM,37.6,35.2,91,30.06,4.0,ESE,6.9,-,N/A,,Clear,120,2012-11-09 08:55:00
3:15 AM,37.4,35.1,91,30.06,4.0,ESE,5.8,-,N/A,,Clear,120,2012-11-09 09:15:00
3:35 AM,37.4,35.1,91,30.06,4.0,ESE,4.6,-,N/A,,Clear,120,2012-11-09 09:35:00
3:55 AM,38.3,35.8,91,30.06,5.0,ESE,4.6,-,N/A,,Mostly Cloudy,110,2012-11-09 09:55:00
4:15 AM,39.6,36.5,89,30.07,5.0,ESE,5.8,-,N/A,,Overcast,120,2012-11-09 10:15:00
4:35 AM,39.6,36.5,89,30.06,5.0,SE,5.8,-,N/A,,Overcast,130,2012-11-09 10:35:00
4:55 AM,39.6,36.5,89,30.06,5.0,SE,5.8,-,N/A,,Overcast,130,2012-11-09 10:55:00
5:15 AM,39.6,36.5,89,30.05,5.0,SE,6.9,-,N/A,,Mostly Cloudy,130,2012-11-09 11:15:00
5:35 AM,38.3,35.2,89,30.05,5.0,SE,6.9,-,N/A,,Scattered Clouds,140,2012-11-09 11:35:00
5:55 AM,38.7,36.0,90,30.06,5.0,SE,5.8,-,N/A,,Mostly Cloudy,140,2012-11-09 11:55:00
6:15 AM,39.6,36.5,89,30.06,5.0,SSE,5.8,-,N/A,,Overcast,160,2012-11-09 12:15:00
6:35 AM,39.6,36.5,89,30.06,5.0,SE,5.8,-,N/A,,Overcast,140,2012-11-09 12:35:00
6:55 AM,40.1,36.7,88,30.06,5.0,SSE,4.6,-,N/A,,Overcast,150,2012-11-09 12:55:00
7:15 AM,40.6,37.2,88,30.06,5.0,SSE,5.8,-,N/A,,Overcast,150,2012-11-09 13:15:00
7:35 AM,41.2,37.6,87,30.07,5.0,SSE,5.8,-,N/A,,Overcast,150,2012-11-09 13:35:00
7:55 AM,42.1,38.1,86,30.06,5.0,SE,5.8,-,N/A,,Overcast,140,2012-11-09 13:55:00
8:15 AM,42.3,37.9,85,30.05,5.0,SSE,5.8,-,N/A,,Overcast,150,2012-11-09 14:15:00
8:35 AM,43.3,38.3,82,30.05,7.0,SE,6.9,-,N/A,,Mostly Cloudy,140,2012-11-09 14:35:00
8:55 AM,44.6,38.8,80,30.05,7.0,South,9.2,-,N/A,,Scattered Clouds,170,2012-11-09 14:55:00
9:15 AM,45.9,39.6,79,30.04,7.0,South,11.5,-,N/A,,Clear,180,2012-11-09 15:15:00
9:35 AM,47.7,40.6,77,30.04,7.0,South,10.4,-,N/A,,Clear,180,2012-11-09 15:35:00
9:55 AM,48.6,41.2,76,30.04,10.0,South,9.2,-,N/A,,Clear,180,2012-11-09 15:55:00
10:15 AM,50.4,42.3,74,30.04,10.0,South,6.9,-,N/A,,Scattered Clouds,190,2012-11-09 16:15:00
10:35 AM,50.9,42.6,73,30.04,10.0,SSE,5.8,-,N/A,,Mostly Cloudy,150,2012-11-09 16:35:00
10:55 AM,52.3,43.5,72,30.02,10.0,SE,5.8,-,N/A,,Overcast,140,2012-11-09 16:55:00
11:15 AM,53.6,43.5,69,30.02,10.0,SSE,6.9,-,N/A,,Overcast,160,2012-11-09 17:15:00
11:35 AM,54.7,44.1,67,30.01,10.0,South,6.9,-,N/A,,Overcast,170,2012-11-09 17:35:00
11:55 AM,54.9,44.4,68,30.01,10.0,South,8.1,-,N/A,,Overcast,190,2012-11-09 17:55:00
12:15 PM,54.7,44.1,67,30.00,10.0,South,8.1,-,N/A,,Overcast,170,2012-11-09 18:15:00
12:35 PM,55.9,44.4,65,29.99,10.0,SSE,5.8,-,N/A,,Overcast,150,2012-11-09 18:35:00
12:55 PM,56.3,44.4,64,29.98,10.0,SSE,8.1,-,N/A,,Overcast,150,2012-11-09 18:55:00
1:15 PM,57.4,45.1,64,29.97,10.0,SE,9.2,-,N/A,,Overcast,130,2012-11-09 19:15:00
1:35 PM,57.4,45.0,63,29.96,10.0,SE,8.1,-,N/A,,Mostly Cloudy,130,2012-11-09 19:35:00
1:55 PM,57.4,45.5,65,29.95,10.0,ESE,9.2,-,N/A,,Scattered Clouds,120,2012-11-09 19:55:00
2:15 PM,57.4,45.7,65,29.95,10.0,SE,9.2,-,N/A,,Clear,130,2012-11-09 20:15:00
2:35 PM,57.2,45.7,65,29.95,10.0,SE,10.4,-,N/A,,Clear,130,2012-11-09 20:35:00
2:55 PM,56.7,45.5,66,29.95,10.0,SSE,9.2,-,N/A,,Clear,150,2012-11-09 20:55:00
3:15 PM,56.3,45.9,68,29.96,10.0,SE,9.2,-,N/A,,Clear,140,2012-11-09 21:15:00
3:35 PM,56.1,45.7,68,29.96,10.0,SE,10.4,-,N/A,,Clear,140,2012-11-09 21:35:00
3:55 PM,55.6,45.7,69,29.95,10.0,SE,11.5,-,N/A,,Clear,130,2012-11-09 21:55:00
4:15 PM,55.6,45.5,69,29.95,10.0,ESE,9.2,-,N/A,,Clear,120,2012-11-09 22:15:00
4:35 PM,54.7,45.7,72,29.95,10.0,ESE,6.9,-,N/A,,Clear,110,2012-11-09 22:35:00
4:55 PM,52.2,45.0,76,29.95,10.0,East,6.9,-,N/A,,Clear,90,2012-11-09 22:55:00
5:15 PM,51.4,45.0,79,29.95,10.0,East,6.9,-,N/A,,Clear,100,2012-11-09 23:15:00
5:35 PM,50.9,45.0,80,29.95,10.0,East,6.9,-,N/A,,Clear,90,2012-11-09 23:35:00
5:55 PM,50.4,44.8,81,29.94,10.0,East,6.9,-,N/A,,Clear,100,2012-11-09 23:55:00
6:15 PM,50.7,45.3,82,29.94,10.0,East,6.9,-,N/A,,Clear,90,2012-11-10 00:15:00
6:35 PM,50.7,45.3,82,29.94,10.0,East,6.9,-,N/A,,Clear,90,2012-11-10 00:35:00
6:55 PM,49.6,45.0,84,29.94,7.0,East,6.9,-,N/A,,Clear,90,2012-11-10 00:55:00
7:15 PM,49.8,45.0,83,29.95,7.0,East,5.8,-,N/A,,Clear,80,2012-11-10 01:15:00
7:35 PM,50.0,44.6,82,29.95,7.0,East,6.9,-,N/A,,Clear,90,2012-11-10 01:35:00
7:55 PM,49.8,45.1,84,29.96,7.0,ENE,6.9,-,N/A,,Clear,70,2012-11-10 01:55:00
8:15 PM,49.3,45.0,85,29.96,7.0,East,8.1,-,N/A,,Clear,80,2012-11-10 02:15:00
8:35 PM,49.5,45.5,86,29.96,7.0,East,6.9,-,N/A,,Clear,80,2012-11-10 02:35:00
8:55 PM,49.8,45.5,85,29.96,7.0,East,5.8,-,N/A,,Clear,90,2012-11-10 02:55:00
9:15 PM,49.5,45.3,86,29.96,7.0,East,8.1,-,N/A,,Scattered Clouds,100,2012-11-10 03:15:00
9:35 PM,51.3,46.6,84,29.96,10.0,ESE,5.8,-,N/A,,Mostly Cloudy,110,2012-11-10 03:35:00
9:55 PM,51.8,46.8,83,29.96,10.0,ESE,5.8,-,N/A,,Overcast,110,2012-11-10 03:55:00
10:15 PM,52.2,47.3,83,29.96,10.0,ESE,6.9,-,N/A,,Mostly Cloudy,110,2012-11-10 04:15:00
10:35 PM,52.5,46.8,81,29.96,10.0,ESE,8.1,-,N/A,,Mostly Cloudy,120,2012-11-10 04:35:00
10:55 PM,52.0,46.9,83,29.96,10.0,ESE,6.9,-,N/A,,Scattered Clouds,120,2012-11-10 04:55:00
11:15 PM,51.8,46.8,83,29.96,10.0,ESE,4.6,-,N/A,,Mostly Cloudy,120,2012-11-10 05:15:00
11:35 PM,52.2,47.3,83,29.97,10.0,SE,4.6,-,N/A,,Overcast,140,2012-11-10 05:35:00
11:55 PM,52.2,47.3,83,29.97,10.0,SSE,6.9,-,N/A,,Overcast,150,2012-11-10 05:55:00